Location: ?ejkovice
(49.0137°N, 14.3821°E)
Time: 20:30:36
(UTC+00:00)

Cosmos 968 Rocket - Pass Details

Date: 09 August 2024
Orbit: 738 x 767 km, 74.0° (Epoch: 12 September)

Event Time Altitude Azimuth Distance (km) Brightness Sun altitude
Rises 18:58:19 0° 341° (NNW) 3,232 7.6 -5.2°
Reaches altitude 10° 19:00:56 10° 351° (N) 2,298 6.6 -5.6°
Maximum altitude 19:05:38 33° 55° (NE) 1,254 4.4 -6.2°
Drops below altitude 10° 19:10:15 10° 120° (ESE) 2,267 5.3 -6.9°
Enters shadow 19:10:38 - 122° (ESE) 2,397 5.4 -6.9°
